Terminal Aerodrome Forecast
Issued by NWS Upton, NY

Current Version | Previous Version | Text Only | Print | Product List | Glossary On
Versions: 1 2 3 4 5 6 7 8 9 10 11 12 13 14 15 16 17 18 19 20 21 22 23 24 25 26 27 28 29 30
000
FTUS41 KOKX 012332
TAFBDR
TAF
KBDR 012332Z 0200/0224 30012KT P6SM SCT060 SCT100
     FM020100 32004KT P6SM SKC
     FM020400 VRB03KT P6SM SKC
     FM021400 23006KT P6SM SCT250
     FM021700 21010KT P6SM FEW060 SCT250=

USA.gov is the U.S. government's official web portal to all federal, state and local government web resources and services.